Weather History for KVWU - December, 2012

Change the Weather History Date:

Thursday, December 6, 2012

  Actual Average (KBDE) Record (KBDE)
Temperature  
Mean Temperature 28 °F -  
Max Temperature 35 °F 24 °F 50 °F (1939)
Min Temperature 21 °F 4 °F -18 °F (1975)
Degree Days  
Heating Degree Days 37    
Moisture  
Dew Point 22 °F    
Average Humidity 82    
Maximum Humidity 93    
Minimum Humidity 65    
Precipitation  
Precipitation 0.00 in - - ()
Sea Level Pressure  
Sea Level Pressure 29.77 in    
Wind  
Wind Speed 13 mph (WSW)    
Max Wind Speed 20 mph    
Max Gust Speed 28 mph    
Visibility 10 miles    
Events Rain    
Averages and records for this station are not official NWS values.
T = Trace of Precipitation, MM = Missing Value Source: NWS Daily Summary

Daily Weather History Graph

Daily Weather History Graph

Search for Another Location

Airport or City:

Trip Planner

Search our weather history database for the weather conditions in past years. The results will help you decide how hot, cold, wet, or windy it might be!

Date:

Astronomy

Dec. 06, 2012 Rise Set
Actual Time 7:53 AM CST 4:24 PM CST
Civil Twilight 7:17 AM CST 5:00 PM CST
Nautical Twilight 6:38 AM CST 5:40 PM CST
Astronomical Twilight 6:00 AM CST 6:17 PM CST
Moon No Moon Rise 12:19 PM CST (12/6)
Length of Visible Light 9h 42m
Length of Day
8h 30m
Waning Gibbous, 49% of the Moon is Illuminated
Dec 6
Waning Gibbous
Dec 13
New
Dec 19
First Quarter
Dec 28
Full
Jan 4
Last Quarter

Hourly Weather History & Observations

Time (CST) Temp. Windchill Dew Point Humidity Pressure Visibility Wind Dir Wind Speed Gust Speed Precip Events Conditions
12:08 AM 35.6 °F 27.5 °F 24.8 °F 65% 29.63 in 10.0 mi SSE 11.5 mph 18.4 mph N/A   Light Drizzle
12:29 AM 35.6 °F 27.1 °F 24.8 °F 65% 29.62 in 10.0 mi SSE 12.7 mph 18.4 mph N/A Rain Light Rain
12:48 AM 33.8 °F 25.8 °F 26.6 °F 75% 29.63 in 10.0 mi South 10.4 mph 19.6 mph N/A   Mostly Cloudy
1:08 AM 33.8 °F 25.8 °F 26.6 °F 75% 29.61 in 10.0 mi South 10.4 mph 17.3 mph N/A   Scattered Clouds
1:29 AM 35.6 °F 28.0 °F 26.6 °F 70% 29.60 in 10.0 mi South 10.4 mph 18.4 mph N/A   Clear
1:48 AM 35.6 °F 28.6 °F 26.6 °F 70% 29.60 in 10.0 mi South 9.2 mph 17.3 mph N/A   Scattered Clouds
2:08 AM 35.6 °F 28.6 °F 26.6 °F 70% 29.60 in 10.0 mi South 9.2 mph - N/A   Scattered Clouds
2:28 AM 35.6 °F 28.6 °F 28.4 °F 75% 29.60 in 10.0 mi South 9.2 mph 16.1 mph N/A   Clear
2:48 AM 35.6 °F 29.2 °F 28.4 °F 75% 29.60 in 10.0 mi South 8.1 mph - N/A   Clear
3:08 AM 35.6 °F 28.0 °F 28.4 °F 75% 29.60 in 10.0 mi South 10.4 mph 16.1 mph N/A   Clear
3:28 AM 35.6 °F 28.6 °F 28.4 °F 75% 29.59 in 10.0 mi South 9.2 mph 16.1 mph N/A   Clear
3:48 AM 35.6 °F 27.5 °F 28.4 °F 75% 29.59 in 10.0 mi SSW 11.5 mph 18.4 mph N/A   Clear
4:09 AM 35.6 °F 27.1 °F 28.4 °F 75% 29.60 in 10.0 mi SSW 12.7 mph 21.9 mph N/A   Clear
4:28 AM 35.6 °F 25.5 °F 28.4 °F 75% 29.61 in 10.0 mi SW 17.3 mph 23.0 mph N/A   Mostly Cloudy
4:48 AM 35.6 °F 25.9 °F 28.4 °F 75% 29.62 in 10.0 mi WSW 16.1 mph 24.2 mph N/A   Overcast
5:09 AM 35.6 °F 27.1 °F 30.2 °F 81% 29.63 in 10.0 mi WSW 12.7 mph - N/A   Overcast
5:28 AM 33.8 °F 23.5 °F 30.2 °F 87% 29.63 in 10.0 mi WSW 16.1 mph - N/A   Overcast
6:09 AM 33.8 °F 24.8 °F 30.2 °F 87% 29.64 in 10.0 mi SW 12.7 mph - N/A   Overcast
6:28 AM 33.8 °F 25.3 °F 30.2 °F 87% 29.65 in 7.0 mi WSW 11.5 mph - N/A   Overcast
6:48 AM 33.8 °F 24.3 °F 30.2 °F 87% 29.66 in 10.0 mi WSW 13.8 mph 17.3 mph N/A   Overcast
7:09 AM 33.8 °F 23.5 °F 30.2 °F 87% 29.66 in 7.0 mi WSW 16.1 mph 23.0 mph N/A   Overcast
7:28 AM 32.0 °F 21.2 °F 30.2 °F 93% 29.67 in 7.0 mi WSW 16.1 mph 26.5 mph N/A   Overcast
7:48 AM 32.0 °F 22.1 °F 30.2 °F 93% 29.68 in 10.0 mi WSW 13.8 mph 21.9 mph N/A   Overcast
8:09 AM 32.0 °F 20.8 °F 30.2 °F 93% 29.68 in 10.0 mi West 17.3 mph 21.9 mph N/A   Overcast
8:28 AM 30.2 °F 18.5 °F 28.4 °F 93% 29.70 in 10.0 mi West 17.3 mph 23.0 mph N/A   Overcast
8:48 AM 28.4 °F 17.0 °F 26.6 °F 93% 29.71 in 10.0 mi West 15.0 mph 21.9 mph N/A   Overcast
9:08 AM 28.4 °F 18.0 °F 26.6 °F 93% 29.72 in 10.0 mi West 12.7 mph 19.6 mph N/A   Overcast
9:28 AM 28.4 °F 15.8 °F 24.8 °F 86% 29.74 in 10.0 mi West 18.4 mph 23.0 mph N/A   Overcast
9:49 AM 26.6 °F 14.3 °F 24.8 °F 93% 29.75 in 10.0 mi West 16.1 mph 23.0 mph N/A   Overcast
10:08 AM 26.6 °F 14.7 °F 23.0 °F 86% 29.76 in 10.0 mi West 15.0 mph 21.9 mph N/A   Overcast
10:28 AM 26.6 °F 14.3 °F 21.2 °F 80% 29.78 in 10.0 mi West 16.1 mph 23.0 mph N/A   Overcast
10:49 AM 24.8 °F 11.5 °F 21.2 °F 86% 29.79 in 10.0 mi West 17.3 mph 21.9 mph N/A   Overcast
11:08 AM 24.8 °F 11.5 °F 21.2 °F 86% 29.79 in 10.0 mi West 17.3 mph 21.9 mph N/A   Overcast
11:28 AM 24.8 °F 12.4 °F 19.4 °F 80% 29.80 in 10.0 mi West 15.0 mph 21.9 mph N/A   Overcast
11:49 AM 24.8 °F 12.4 °F 19.4 °F 80% 29.81 in 10.0 mi West 15.0 mph 20.7 mph N/A   Overcast
12:08 PM 24.8 °F 12.9 °F 19.4 °F 80% 29.81 in 10.0 mi West 13.8 mph 21.9 mph N/A   Overcast
12:28 PM 23.0 °F 8.3 °F 17.6 °F 80% 29.82 in 10.0 mi West 19.6 mph 27.6 mph N/A   Overcast
12:48 PM 23.0 °F 9.2 °F 17.6 °F 80% 29.82 in 10.0 mi West 17.3 mph - N/A   Overcast
1:08 PM 23.0 °F 9.6 °F 17.6 °F 80% 29.83 in 10.0 mi West 16.1 mph 23.0 mph N/A   Overcast
1:29 PM 23.0 °F 9.6 °F 17.6 °F 80% 29.83 in 10.0 mi West 16.1 mph 20.7 mph N/A   Overcast
1:48 PM 23.0 °F 9.6 °F 17.6 °F 80% 29.83 in 10.0 mi West 16.1 mph 21.9 mph N/A   Overcast
2:08 PM 21.2 °F 8.3 °F 17.6 °F 86% 29.84 in 10.0 mi West 13.8 mph - N/A   Overcast
2:29 PM 23.0 °F 11.1 °F 17.6 °F 80% 29.84 in 10.0 mi West 12.7 mph 19.6 mph N/A   Overcast
2:48 PM 21.2 °F 7.8 °F 17.6 °F 86% 29.85 in 10.0 mi West 15.0 mph 20.7 mph N/A   Overcast
3:08 PM 21.2 °F 8.3 °F 17.6 °F 86% 29.86 in 10.0 mi West 13.8 mph 18.4 mph N/A   Overcast
3:29 PM 21.2 °F 9.5 °F 17.6 °F 86% 29.86 in 10.0 mi West 11.5 mph - N/A   Overcast
3:48 PM 21.2 °F 9.5 °F 17.6 °F 86% 29.87 in 10.0 mi West 11.5 mph - N/A   Overcast
4:08 PM 23.0 °F 13.1 °F 17.6 °F 80% 29.87 in 10.0 mi West 9.2 mph - N/A   Overcast
4:29 PM 23.0 °F 11.1 °F 19.4 °F 86% 29.87 in 10.0 mi West 12.7 mph - N/A   Overcast
4:48 PM 23.0 °F 10.6 °F 19.4 °F 86% 29.87 in 10.0 mi West 13.8 mph - N/A   Overcast
5:08 PM 23.0 °F 11.1 °F 19.4 °F 86% 29.88 in 10.0 mi West 12.7 mph 18.4 mph N/A   Overcast
5:29 PM 24.8 °F 14.0 °F 19.4 °F 80% 29.88 in 10.0 mi West 11.5 mph 17.3 mph N/A   Overcast
5:48 PM 23.0 °F 9.6 °F 19.4 °F 86% 29.88 in 10.0 mi West 16.1 mph - N/A   Overcast
6:08 PM 23.0 °F 11.1 °F 17.6 °F 80% 29.89 in 10.0 mi West 12.7 mph 19.6 mph N/A   Overcast
6:28 PM 23.0 °F 11.7 °F 17.6 °F 80% 29.89 in 10.0 mi West 11.5 mph - N/A   Overcast
6:48 PM 23.0 °F 10.6 °F 17.6 °F 80% 29.90 in 10.0 mi West 13.8 mph 19.6 mph N/A   Overcast
7:08 PM 23.0 °F 10.1 °F 17.6 °F 80% 29.90 in 10.0 mi West 15.0 mph - N/A   Overcast
7:48 PM 21.2 °F 8.9 °F 17.6 °F 86% 29.91 in 10.0 mi WSW 12.7 mph 17.3 mph N/A   Overcast
8:28 PM 21.2 °F 8.3 °F 15.8 °F 80% 29.91 in 10.0 mi West 13.8 mph 19.6 mph N/A   Overcast
8:48 PM 21.2 °F 8.9 °F 15.8 °F 80% 29.91 in 10.0 mi West 12.7 mph 18.4 mph N/A   Overcast
9:09 PM 21.2 °F 8.3 °F 17.6 °F 86% 29.91 in 10.0 mi West 13.8 mph 20.7 mph N/A   Overcast
9:28 PM 21.2 °F 10.1 °F 15.8 °F 80% 29.92 in 10.0 mi West 10.4 mph 19.6 mph N/A   Overcast
9:48 PM 21.2 °F 10.1 °F 17.6 °F 86% 29.92 in 10.0 mi West 10.4 mph - N/A   Overcast
10:08 PM 21.2 °F 10.9 °F 17.6 °F 86% 29.92 in 10.0 mi West 9.2 mph - N/A   Overcast
10:29 PM 21.2 °F 10.9 °F 17.6 °F 86% 29.92 in 10.0 mi West 9.2 mph - N/A   Overcast
10:48 PM 21.2 °F 10.9 °F 17.6 °F 86% 29.92 in 10.0 mi WNW 9.2 mph 16.1 mph N/A   Overcast
11:08 PM 21.2 °F 10.9 °F 17.6 °F 86% 29.93 in 10.0 mi West 9.2 mph - N/A   Overcast
11:29 PM 21.2 °F 11.7 °F 17.6 °F 86% 29.93 in 10.0 mi West 8.1 mph - N/A   Overcast
11:48 PM 23.0 °F 13.1 °F 17.6 °F 80% 29.94 in 10.0 mi West 9.2 mph - N/A   Overcast